Weather History for MCMWTC BRIDGEPORT, CA, CA

Change the Weather History Date:

Tuesday, June 10, 2014

  Actual Average (KTVL) Record (KTVL)
Temperature  
Mean Temperature 60 °F 53 °F  
Max Temperature 86 °F 70 °F 84 °F (2014)
Min Temperature 39 °F 36 °F 27 °F (2012)
Degree Days  
Heating Degree Days 4 12  
Month to date heating degree days 127  
Since 1 June heating degree days 127  
Since 1 July heating degree days 7549  
Cooling Degree Days 0 0  
Month to date cooling degree days 0  
Year to date cooling degree days 0  
Since 1 June cooling degree days 0  
Growing Degree Days 10 (Base 50)    
Moisture  
Dew Point 27 °F    
Average Humidity 31    
Maximum Humidity 55    
Minimum Humidity 8    
Precipitation  
Precipitation 0.00 in - 0.78 in (1963)
Month to date precipitation  
Year to date precipitation  
Sea Level Pressure  
Sea Level Pressure 29.77 in    
Wind  
Wind Speed 4 mph (SW)    
Max Wind Speed 13 mph    
Max Gust Speed 26 mph    
T = Trace of Precipitation, MM = Missing Value Source: NWS Daily Summary

Daily Weather History Graph

Daily Weather History Graph

Search for Another Location

Airport:

Trip Planner

Search our weather history database for the weather conditions in past years. The results will help you decide how hot, cold, wet, or windy it might be!

Date:

Astronomy

Jun. 10, 2014 Rise Set
Actual Time 5:33 AM PDT 8:21 PM PDT
Civil Twilight 5:02 AM PDT 8:52 PM PDT
Nautical Twilight 4:22 AM PDT 9:32 PM PDT
Astronomical Twilight 3:38 AM PDT 10:17 PM PDT
Moon 5:53 PM PDT (6/10) 3:40 AM PDT (6/10)
Length of Visible Light 15h 50m
Length of Day
14h 47m
Waxing Gibbous, 93% of the Moon is Illuminated
Jun 10
Waxing Gibbous
Jun 12
Full
Jun 19
Last Quarter
Jun 27
New
Jul 5
First Quarter

Hourly Weather History & Observations

Time (PDT) Temp. Dew Point Humidity Pressure Visibility Wind Dir Wind Speed Gust Speed Precip Events Conditions
12:52 AM 54.0 °F 26.1 °F 34% 29.78 in - Variable 3.5 mph - N/A   Clear
1:52 AM 48.9 °F 26.1 °F 41% 29.79 in - Calm Calm - N/A   Clear
2:52 AM 45.0 °F 25.0 °F 46% 29.79 in - Calm Calm - N/A   Clear
3:52 AM 44.1 °F 23.0 °F 43% 29.80 in - Calm Calm - N/A   Clear
4:52 AM 39.9 °F 24.1 °F 53% 29.81 in - Calm Calm - N/A   Clear
5:52 AM 39.0 °F 24.1 °F 55% 29.84 in - Calm Calm - N/A   Clear
6:52 AM 44.1 °F 27.0 °F 51% 29.83 in - Calm Calm - N/A   Clear
8:52 AM 64.0 °F 28.9 °F 27% 29.76 in - Calm Calm - N/A   Clear
9:52 AM 73.9 °F 25.0 °F 16% 29.71 in - SSE 4.6 mph - N/A   Clear
10:52 AM 79.0 °F 21.0 °F 12% 29.70 in - Variable 5.8 mph 18.4 mph N/A   Clear
11:52 AM 81.0 °F 18.0 °F 10% 29.72 in - Variable 6.9 mph - N/A   Clear
1:52 PM 81.0 °F 15.1 °F 8% 29.72 in - Calm Calm - N/A   Clear
2:52 PM 82.0 °F 19.0 °F 10% 29.72 in - Variable 4.6 mph 18.4 mph N/A   Clear
3:52 PM 82.9 °F 25.0 °F 12% 29.70 in - SSW 11.5 mph 20.7 mph N/A   Clear
4:52 PM 82.0 °F 28.0 °F 14% 29.72 in - SW 11.5 mph 21.9 mph N/A   Clear
5:52 PM 79.0 °F 28.0 °F 15% 29.73 in - WSW 12.7 mph 23.0 mph N/A   Clear
6:52 PM 73.9 °F 30.9 °F 21% 29.80 in - ESE 12.7 mph 26.5 mph N/A   Mostly Cloudy
7:52 PM 66.0 °F 35.1 °F 32% 29.82 in - NNE 12.7 mph - N/A   Clear
8:52 PM 64.0 °F 35.1 °F 34% 29.79 in - North 8.1 mph - N/A   Clear
9:52 PM 57.9 °F 34.0 °F 41% 29.78 in - NNW 9.2 mph - N/A   Clear
10:52 PM 54.0 °F 34.0 °F 47% 29.78 in - Calm Calm - N/A   Clear
11:52 PM 51.1 °F 33.1 °F 50% 29.79 in - Calm Calm - N/A   Clear